#timestamp,LO_Frequency,Hit,StdDev 
1518447615.1,286046996.8,P
1518447635.8,286046996.5,P
1518447655.7,286046999.4,N
1518447675.5,286046998.4,N
1518447695.3,286046999.1,N
1518447715.2,286046998.4,N
1518447735.9,286046998.7,N
1518447755.7,286046998.8,N
1518447775.6,286046998.9,N
1518447795.4,286046998.9,N
1518447815.2,286046998.6,N
1518447835.1,286046996.5,Y
1518447836.0,286046996.5,P
1518447855.8,286047000.2,N
1518447875.6,286047000.0,N
1518447895.5,286047000.3,N
1518447915.3,286047000.7,N
1518447935.1,286047000.8,N
1518447955.9,286046998.3,N
1518447975.7,286046996.5,N
1518447995.5,286046999.0,N
1518448015.3,286046998.4,N
1518448035.2,286047001.2,N
1518448055.0,286046998.4,N
1518448055.9,286046998.4,N
1518448075.7,286046998.7,N
1518448095.6,286046998.7,N
1518448115.4,286046998.8,N
1518448135.2,286046998.2,N
1518448155.1,286046998.8,N
1518448156.0,286046998.8,N
1518448175.8,286046998.9,N
1518448195.6,286046995.2,Y
1518448215.5,286047000.4,P
1518448235.3,286047001.1,N
1518448255.1,286047001.2,N
1518448275.9,286047001.2,N
1518448295.7,286047000.6,N
1518448315.5,286047000.9,N
1518448335.4,286047001.0,N
1518448355.2,286046998.1,N
1518448375.0,286046998.7,N
1518448375.9,286046998.7,N
1518448395.7,286047001.0,N
1518448415.6,286046998.8,N
1518448435.4,286046998.2,N
1518448455.2,286047001.0,N
1518448475.1,286047000.7,N
1518448476.0,286047000.7,N
1518448495.8,286047000.7,N
1518448515.6,286047000.3,N
1518448535.5,286046999.0,N
1518448555.3,286046998.5,N
1518448575.1,286046998.6,N
1518448595.9,286046999.5,N
1518448615.7,286047001.1,N
1518448635.5,286047001.1,N
1518448655.4,286047001.1,N
1518448675.2,286047001.2,N
1518448695.0,286047001.1,N
1518448695.9,286047001.1,N
1518448715.7,286046998.4,N
1518448735.6,286046998.4,N
1518448755.4,286047001.2,N
1518448775.2,286046998.7,N
1518448795.1,286046999.3,N
1518448796.0,286046999.3,N
1518448815.8,286046999.1,N
1518448835.6,286046999.4,N
1518448855.5,286047001.1,N
1518448875.3,286047000.5,N
1518448895.1,286046998.3,N
1518448915.9,286046999.3,N
1518448935.7,286046998.6,N
1518448955.5,286046998.5,N
1518448975.4,286047000.7,N
1518448995.2,286047000.7,N
1518449015.0,286047001.0,N
1518449015.9,286047001.0,N
1518449035.8,286047000.9,N
1518449055.6,286047000.9,N
1518449075.4,286047001.2,N
1518449095.3,286047001.2,N
1518449115.1,286047001.2,N
1518449116.0,286047001.2,N
1518449135.8,286047000.5,N
1518449155.7,286047000.8,N
1518449175.5,286047000.7,N
1518449195.3,286047000.3,N
1518449215.1,286047000.9,N
1518449235.9,286047000.6,N
1518449255.7,286047000.5,N
1518449275.5,286046999.8,N
1518449295.4,286047000.6,N
1518449315.2,286047000.4,N
1518449335.0,286047000.4,N
1518449335.9,286047000.4,N
1518449355.8,286047000.7,N
1518449375.6,286047000.3,N
1518449395.4,286047000.0,N
1518449415.3,286047000.9,N
1518449435.1,286046999.9,N
1518449436.0,286046999.9,N
1518449455.8,286046999.9,N
1518449475.7,286046999.9,N
1518449495.5,286047002.4,Y
1518449515.3,286047001.0,P
1518449535.2,286047000.9,P
1518449555.9,286047000.9,P
1518449575.7,286047002.0,Y
1518449595.6,286046998.3,P
1518449615.4,286047000.5,N
1518449635.2,286046998.6,N
1518449655.1,286047000.8,N
1518449656.0,286047000.8,N
1518449675.8,286047000.8,N
1518449695.6,286046998.9,N
1518449715.4,286046999.6,N
1518449735.3,286047001.0,N
1518449755.1,286047000.9,N
1518449775.8,286046998.1,N
1518449795.7,286047000.5,N
1518449815.5,286047000.1,N
1518449835.3,286046999.7,N
1518449855.2,286046999.7,N
1518449875.9,286047002.7,N
1518449895.7,286047000.2,N
1518449915.6,286047002.3,N
1518449935.4,286046999.8,N
1518449955.2,286046999.7,N
1518449975.0,286047002.7,N
1518449976.0,286047002.7,N
1518449995.8,286047002.3,N
1518450015.6,286047002.3,N
1518450035.4,286047001.8,N
1518450055.3,286047002.1,N
1518450075.1,286047002.1,N
1518450095.8,286047001.6,N
1518450115.7,286047002.5,N
1518450135.5,286047001.8,N
1518450155.3,286047001.4,N
1518450175.2,286047001.5,N
1518450195.9,286047004.0,Y
1518450215.7,286047002.1,P
1518450235.6,286047001.5,N
1518450255.4,286047001.4,N
1518450275.2,286047004.4,Y
1518450295.1,286047002.3,P
1518450296.0,286047002.3,P
1518450315.8,286047002.6,P
1518450335.6,286047002.5,Y
1518450355.5,286047000.8,P
1518450375.3,286047000.7,N
1518450395.1,286047000.9,N
1518450415.9,286046998.1,Y
1518450435.7,286046998.6,P
1518450455.5,286046998.5,N
1518450475.4,286046998.2,N
1518450495.2,286047001.2,N
1518450515.0,286047000.7,N
1518450515.9,286047000.7,N
1518450535.8,286046998.2,N
1518450555.6,286046998.1,N
1518450575.4,286047000.6,N
1518450595.3,286047000.9,N
1518450615.1,286047000.1,N
1518450616.0,286047000.1,N
1518450635.8,286047000.0,N
1518450655.6,286046999.7,N
1518450675.5,286047002.8,N
1518450695.3,286047002.4,N
1518450715.1,286047002.3,N
1518450735.9,286047002.5,N
1518450755.7,286047002.1,N
1518450775.5,286047002.0,N
1518450795.4,286047002.3,N
1518450815.2,286047001.5,N
1518450835.0,286047002.5,N
1518450835.9,286047002.5,N
1518450855.8,286047001.8,N
1518450875.6,286047001.4,N
1518450895.4,286047004.4,N
1518450915.3,286047001.7,N
1518450935.1,286047004.4,N
1518450936.0,286047004.4,N
1518450955.8,286047004.0,N
1518450975.7,286047003.2,N
1518450995.5,286047003.3,N
1518451015.3,286047003.6,N
1518451035.1,286047003.1,N
1518451055.9,286047005.5,Y
1518451075.7,286047001.8,P
1518451095.5,286047001.4,P
1518451115.4,286047003.3,P
1518451135.2,286047003.5,Y
1518451155.0,286047002.2,P
1518451156.0,286047002.2,P
1518451175.8,286047002.0,P
1518451195.6,286047001.6,Y
